TimeCET,TemperatureF,Dew PointF,Humidity,Sea Level PressureIn,VisibilityMPH,Wind Direction,Wind SpeedMPH,Gust SpeedMPH,PrecipitationIn,Events,Conditions,WindDirDegrees,DateUTC
12:25 AM,44.6,37.4,76,29.18,-9999.0,SSE,16.1,-,N/A,,Clear,150,2012-10-31 23:25:00
12:55 AM,44.6,39.2,81,29.15,-9999.0,SSE,16.1,-,N/A,,Clear,150,2012-10-31 23:55:00
1:00 AM,45,38,70,29.18,17,SSE,15.7,,,,Partly Cloudy,160,2012-11-01 00:00:00
1:25 AM,44.6,39.2,81,29.15,-9999.0,SSE,15.0,-,N/A,,Clear,150,2012-11-01 00:25:00
1:55 AM,44.6,39.2,81,29.15,-9999.0,SSE,15.0,-,N/A,,Clear,150,2012-11-01 00:55:00
2:25 AM,44.6,39.2,81,29.12,-9999.0,SSE,15.0,-,N/A,,Clear,150,2012-11-01 01:25:00
2:55 AM,42.8,39.2,87,29.12,-9999.0,SSE,15.0,-,N/A,,Clear,150,2012-11-01 01:55:00
3:25 AM,42.8,39.2,87,29.09,-9999.0,SSE,16.1,-,N/A,,Clear,150,2012-11-01 02:25:00
3:55 AM,42.8,39.2,87,29.09,-9999.0,SE,15.0,-,N/A,,Clear,140,2012-11-01 02:55:00
4:00 AM,44,39,76,29.09,17,SE,15.7,,,,Scattered Clouds,140,2012-11-01 03:00:00
4:25 AM,42.8,39.2,87,29.06,-9999.0,SE,13.8,-,N/A,,Clear,140,2012-11-01 03:25:00
4:55 AM,44.6,39.2,81,29.06,-9999.0,SE,15.0,-,N/A,,Clear,140,2012-11-01 03:55:00
5:25 AM,42.8,39.2,87,29.03,-9999.0,SE,16.1,-,N/A,,Clear,140,2012-11-01 04:25:00
5:55 AM,44.6,39.2,81,29.03,-9999.0,SE,16.1,-,N/A,,Clear,140,2012-11-01 04:55:00
6:25 AM,44.6,39.2,81,29.00,-9999.0,SE,16.1,-,N/A,,Clear,140,2012-11-01 05:25:00
6:55 AM,44.6,39.2,81,28.97,-9999.0,SE,17.3,-,N/A,,Clear,140,2012-11-01 05:55:00
7:00 AM,45,40,75,29.00,17,SSE,17.9,,,,Partly Cloudy,150,2012-11-01 06:00:00
7:25 AM,44.6,39.2,81,28.97,-9999.0,SE,19.6,-,N/A,,Clear,140,2012-11-01 06:25:00
7:55 AM,44.6,39.2,81,28.97,-9999.0,SE,18.4,-,N/A,,Clear,140,2012-11-01 06:55:00
8:25 AM,46.4,41.0,81,28.94,6.2,SSE,19.6,-,N/A,,Scattered Clouds,150,2012-11-01 07:25:00
8:55 AM,48.2,41.0,76,28.94,6.2,SSE,23.0,-,N/A,,Partly Cloudy,150,2012-11-01 07:55:00
9:25 AM,48.2,41.0,76,28.94,6.2,SSE,20.7,-,N/A,,Mostly Cloudy,160,2012-11-01 08:25:00
9:55 AM,48.2,42.8,82,28.94,6.2,SSE,20.7,-,N/A,Rain,Light Rain,160,2012-11-01 08:55:00
10:00 AM,48,43,77,28.94,22,SSE,20.1,,,Rain,Rain,160,2012-11-01 09:00:00
10:25 AM,48.2,44.6,87,28.91,5.0,SSE,19.6,-,N/A,Rain,Light Rain,160,2012-11-01 09:25:00
10:55 AM,48.2,44.6,87,28.91,6.2,SSE,19.6,-,N/A,Rain,Light Rain,160,2012-11-01 09:55:00
11:25 AM,48.2,46.4,93,28.91,6.2,SSE,19.6,-,N/A,Rain,Light Rain,160,2012-11-01 10:25:00
11:55 AM,48.2,46.4,93,28.88,6.2,South,19.6,-,N/A,Rain,Light Rain,170,2012-11-01 10:55:00
12:25 PM,50.0,46.4,87,28.88,6.2,South,16.1,-,N/A,,Mostly Cloudy,180,2012-11-01 11:25:00
12:55 PM,50.0,46.4,87,28.88,6.2,South,20.7,-,N/A,Rain,Light Rain,190,2012-11-01 11:55:00
1:00 PM,50,46,81,28.90,16,South,17.9,,,Rain,Light Drizzle,180,2012-11-01 12:00:00
1:25 PM,50.0,46.4,87,28.88,6.2,South,19.6,-,N/A,,Scattered Clouds,190,2012-11-01 12:25:00
1:55 PM,50.0,44.6,82,28.88,6.2,SSW,17.3,-,N/A,,Scattered Clouds,210,2012-11-01 12:55:00
2:25 PM,50.0,44.6,82,28.91,6.2,SSW,17.3,-,N/A,,Partly Cloudy,210,2012-11-01 13:25:00
2:55 PM,50.0,44.6,82,28.91,6.2,SSW,15.0,-,N/A,,Partly Cloudy,210,2012-11-01 13:55:00
3:25 PM,50.0,44.6,82,28.91,6.2,SSW,19.6,-,N/A,,Partly Cloudy,210,2012-11-01 14:25:00
3:55 PM,50.0,41.0,71,28.91,6.2,SW,23.0,-,N/A,,Partly Cloudy,220,2012-11-01 14:55:00
4:00 PM,49,41,64,28.94,25,SW,20.1,,,,Partly Cloudy,220,2012-11-01 15:00:00
4:25 PM,48.2,41.0,76,28.94,6.2,SSW,17.3,-,N/A,,Partly Cloudy,200,2012-11-01 15:25:00
4:55 PM,48.2,39.2,71,28.94,6.2,SSW,18.4,-,N/A,,Partly Cloudy,210,2012-11-01 15:55:00
5:25 PM,46.4,39.2,76,28.94,6.2,SSW,17.3,-,N/A,,Partly Cloudy,200,2012-11-01 16:25:00
5:55 PM,46.4,39.2,76,28.97,6.2,SSW,19.6,-,N/A,,Partly Cloudy,210,2012-11-01 16:55:00
6:25 PM,44.6,39.2,81,28.97,6.2,SSW,16.1,-,N/A,,Partly Cloudy,200,2012-11-01 17:25:00
6:55 PM,44.6,39.2,81,28.97,6.2,SSW,16.1,-,N/A,,Partly Cloudy,200,2012-11-01 17:55:00
7:00 PM,44,39,78,29.00,28,SSW,15.7,,,,Partly Cloudy,200,2012-11-01 18:00:00
7:25 PM,44.6,39.2,81,29.00,6.2,SSW,15.0,-,N/A,,Partly Cloudy,200,2012-11-01 18:25:00
7:55 PM,44.6,41.0,87,29.00,6.2,SSW,16.1,-,N/A,,Scattered Clouds,210,2012-11-01 18:55:00
8:25 PM,44.6,41.0,87,29.00,6.2,SSW,16.1,-,N/A,Rain,Light Rain Showers,200,2012-11-01 19:25:00
8:55 PM,44.6,41.0,87,29.00,6.2,South,16.1,-,N/A,,Scattered Clouds,190,2012-11-01 19:55:00
9:25 PM,44.6,41.0,87,29.03,6.2,SSW,19.6,-,N/A,,Scattered Clouds,210,2012-11-01 20:25:00
9:55 PM,46.4,39.2,76,29.03,6.2,SW,16.1,-,N/A,,Partly Cloudy,230,2012-11-01 20:55:00
10:00 PM,46,39,69,29.06,25,WSW,17.9,,,Rain,Rain,240,2012-11-01 21:00:00
10:25 PM,46.4,39.2,76,29.06,6.2,WSW,16.1,-,N/A,,Scattered Clouds,240,2012-11-01 21:25:00
10:55 PM,44.6,39.2,81,29.09,6.2,SW,16.1,-,N/A,,Scattered Clouds,230,2012-11-01 21:55:00
11:25 PM,44.6,41.0,87,29.09,6.2,SW,12.7,-,N/A,,Scattered Clouds,220,2012-11-01 22:25:00
11:55 PM,46.4,41.0,81,29.09,6.2,WSW,20.7,35.7,N/A,Rain,Light Rain Showers,250,2012-11-01 22:55:00